Regional Weather Roundup
Issued by NWS

Home | Current Version | Previous Version | Text Only | Print | Product List | Glossary Off
Versions: 1 2 3 4 5 6 7 8 9 10 11 12 13 14 15 16 17 18 19 20 21 22 23 24 25 26 27 28 29 30 31 32 33 34 35 36 37 38 39 40 41 42 43 44 45 46 47 48 49 50

000
ASUS43 KIND 112359
RWRIN

WEATHER ROUNDUP FOR INDIANA
NATIONAL WEATHER SERVICE INDIANAPOLIS IN
700 PM EST MON DEC 11 2017

NOTE: "FAIR" INDICATES FEW OR NO CLOUDS BELOW 12,000 FEET WITH NO
SIGNIFICANT WEATHER AND/OR OBSTRUCTIONS TO VISIBILITY.

* - STATION DOES NOT REPORT WEATHER SUCH AS PRECIPITATION OR FOG.

+ - STATION NOT QUALITY CONTROLLED BY THE NATIONAL WEATHER SERVICE.
    USE DATA WITH CAUTION...ESPECIALLY DEWPOINT AND RELATIVE
    HUMIDITY OBSERVATIONS.

INZ001>003-010>013-019-020-120100-
NORTHWEST INDIANA

CITY           SKY/WX    TMP DP  RH WIND       PRES   REMARKS
GARY /AIRPORT/ CLOUDY    37  25  60 N7        29.74R WCI  32
KNOX *+        CLOUDY    30  27  86 N6        29.68F WCI  24
LA PORTE +     CLOUDY    30  26  83 NE5       29.71S WCI  26
6HR MIN TEMP:  29; 6HR MAX TEMP:  32;

MICHIGAN CITY+ CLOUDY    32  27  80 N3        29.73R
MONTICELLO +   MOCLDY    35  26  72 E6        29.66S WCI  29
6HR MIN TEMP:  35; 6HR MAX TEMP:  40;

RENSSELAER +   PTCLDY    32  25  74 NE8       29.67R WCI  25

$$

LMZ046-743>745-120100-
SOUTHERN LAKE MICHIGAN

STATION/POSITION TIME  TEMP    WIND        PRES    WAVE
                       AIR SEA DIR/SP/G            HT
                 (UTC) (F)     (DEG/KT/KT) (MB)    (FT)
BURNS HARBOR     2340   35      40/  4/  6 1007.1R
MICHIGAN CITY    2330   33      80/  4/  4   N/A

$$

INZ004-005-014>016-021>024-120100-
NORTH CENTRAL INDIANA

CITY           SKY/WX    TMP DP  RH WIND       PRES   REMARKS
ELKHART        CLOUDY    32  27  80 CALM      29.70F
GOSHEN         PTCLDY    30  25  81 NE5       29.69F WCI  25
6HR MIN TEMP:  30; 6HR MAX TEMP:  33;

SOUTH BEND     CLOUDY    31  27  85 E3        29.71F
6HR MIN TEMP:  30; 6HR MAX TEMP:  31;

WARSAW +       PTCLDY    30  27  86 SE5       29.68F WCI  25

$$

INZ006>009-017-018-025>027-120100-
NORTHEAST INDIANA

CITY           SKY/WX    TMP DP  RH WIND       PRES   REMARKS
AUBURN +       MOCLDY    32  27  80 SE3       29.71F
FORT WAYNE     CLOUDY    31  27  85 E7        29.69F WCI  24
6HR MIN TEMP:  31; 6HR MAX TEMP:  35;

KENDALLVILLE + PTCLDY    31  27  83 SE8       29.70F WCI  24

$$

INZ028-029-035-036-043>045-051>053-120100-
WEST CENTRAL INDIANA

CITY           SKY/WX    TMP DP  RH WIND       PRES   REMARKS
CRAWFORDSVL +  CLEAR     41  25  54 W14       29.68R
6HR MIN TEMP:  39; 6HR MAX TEMP:  46;

GREENCASTLE +  CLEAR     45  23  42 W12G21    29.71R
LAFAYETTE      PTCLDY    41  26  55 W9        29.66R
6HR MIN TEMP:  39; 6HR MAX TEMP:  46;

TERRE HAUTE    CLEAR     46  23  40 W15G21    29.74R
6HR MIN TEMP:  46; 6HR MAX TEMP:  50;


$$

INZ030>032-037>040-046>048-054>057-064-065-120100-
CENTRAL INDIANA

CITY           SKY/WX    TMP DP  RH WIND       PRES   REMARKS
COLUMBUS       CLEAR     37  25  60 S7        29.69F WCI  32
FRANKFORT +    CLOUDY    43  30  60 W14       29.68R
6HR MIN TEMP:  37; 6HR MAX TEMP:  46;

INDIANAPOLIS   CLOUDY    45  29  53 W14       29.68R
6HR MIN TEMP:  40; 6HR MAX TEMP:  46;

-EAGLE CREEK   CLOUDY    46  28  49 W10G17    29.67R
6HR MIN TEMP:  41; 6HR MAX TEMP:  46;

KOKOMO +       MOCLDY    34  29  82 E8        29.67F WCI  27
6HR MIN TEMP:  34; 6HR MAX TEMP:  38;

MT COMFORT *+  CLOUDY    37  32  81 S10       29.66F WCI  30
SHELBYVILLE    PTCLDY    42  28  57 S9        29.66F
6HR MIN TEMP:  38; 6HR MAX TEMP:  46;


$$

INZ033-034-041-042-049-050-058-059-120100-
EAST CENTRAL INDIANA

CITY           SKY/WX    TMP DP  RH WIND       PRES   REMARKS
MUNCIE         CLOUDY    37  28  70 SE7       29.66F WCI  32
6HR MIN TEMP:  36; 6HR MAX TEMP:  42;

RICHMOND +     PTCLDY    32  28  86 SE9       29.69F WCI  24

$$

INZ060-061-067>069-081>083-085>088-120100-
SOUTHWEST INDIANA

CITY           SKY/WX    TMP DP  RH WIND       PRES   REMARKS
EVANSVILLE     CLEAR     53  28  38 W17G29    29.81R
6HR MIN TEMP:  50; 6HR MAX TEMP:  57;

HUNTINGBURG +  CLEAR     50  31  48 W14G29    29.78R
6HR MIN TEMP:  45; 6HR MAX TEMP:  54;


$$

INZ062-063-066-070>080-084-089>092-120100-
SOUTH CENTRAL AND SOUTHEAST INDIANA

CITY           SKY/WX    TMP DP  RH WIND       PRES   REMARKS
BLOOMINGTON    CLEAR     49  26  41 W18G33    29.72R
6HR MIN TEMP:  43; 6HR MAX TEMP:  50;

SEYMOUR +      CLEAR     41  27  56 SW6       29.70F

$$




USA.gov is the U.S. government's official web portal to all federal, state and local government web resources and services.